Location: Vihti�l�
(61.3833°N, 23.0667°E)
Time: 03:49:27
(UTC+00:00)

Cosmos 1633 - Pass Details

Date: 29 November 2020
Orbit: 462 x 479 km, 82.5° (Epoch: 19 January)

Event Time Altitude Azimuth Distance (km) Brightness Sun altitude
Exits shadow 03:37:37 24° 17° (NNE) 1,032 4.3 -23.4°
Drops below altitude 10° 03:39:07 10° 16° (NNE) 1,641 5.4 -23.2°
Sets 03:41:13 0° 16° (NNE) 2,525 6.4 -22.9°
